[[{"header":{"parameterUnit":"m.s-1","parameterCategory":1,"la1":30.2991,"la2":30.254,"lo1":-89.0895,"lo2":-89.0444,"dy":0.0017,"dx":0.0017,"nx":28,"ny":28,"refTime":"2025-04-23T21:00:00:Z","depth":0,"parameterNumber":2,"parameterNumberName":"U-component_of_WINDS"},"data":[0,0,0,0,0,0,0,0,0,0,0,0,0,0,0,0,0,0,0,0,0,0,0,0,0,0,0,0,0,0,0,0,0,0,0,0,0,0,0,0,0,0,0,0,0,0,0,0,0,0,0,0,0,0,0,0,0,0,-3.0971,-3.0972,0,-3.1021,-3.1021,-3.1022,-3.0986,-3.0984,-3.0982,-3.0981,-3.103,-3.1033,-3.1036,0,0,0,0,0,0,0,0,0,0,0,0,0,-3.0845,-3.0847,-3.0971,-3.0972,-3.0972,-3.1021,-3.1021,-3.1022,-3.0986,-3.0984,-3.0982,-3.098,-3.1029,-3.1033,-3.1036,0,0,0,0,0,0,0,0,0,0,0,0,0,-3.0897,-3.0848,-3.0971,-3.096,-3.096,-3.102,-3.1021,-3.1022,-3.0986,-3.0984,-3.0981,-3.0979,-3.1028,-3.1032,-3.1036,-3.111,0,0,-3.1049,-3.1051,0,0,0,0,0,0,0,0,-3.0894,-3.0902,-3.0961,-3.0961,-3.0961,-3.0994,-3.0995,-3.1052,-3.0987,-3.0976,-3.0981,-3.0978,-3.102,-3.1025,-3.1039,-3.1112,-3.1115,-3.105,-3.1052,-3.1054,-3.1055,0,0,0,0,0,0,0,-3.0891,-3.09,-3.0991,-3.0962,-3.0962,-3.0953,-3.0957,-3.1005,-3.1011,-3.0977,-3.0974,-3.0981,-3.102,-3.1035,-3.104,-3.1115,-3.105,-3.1053,-3.1056,-3.1058,-3.1252,-3.1254,0,0,0,0,0,0,-3.0888,-3.0897,-3.0989,-3.0992,-3.0921,-3.0957,-3.0962,-3.0986,-3.101,-3.1012,-3.0983,-3.0979,-3.1029,-3.1035,-3.1042,-3.113,-3.1054,-3.1058,-3.106,-3.1249,-3.1252,-3.1255,0,0,0,0,0,0,-3.0886,-3.0897,-3.0987,-3.0944,-3.0955,-3.0962,-3.0988,-3.0988,-3.1004,-3.1015,-3.1015,-3.0998,-3.1028,-3.1036,-3.1094,-3.1131,-3.106,-3.1064,-3.1246,-3.125,-3.1254,-3.1306,0,0,0,0,0,0,-3.0882,-3.0896,-3.0924,-3.0945,-3.0957,-3.1038,-3.0991,-3.0991,-3.1011,-3.1007,-3.1029,-3.1031,-3.1027,-3.1088,-3.1098,-3.1135,-3.1067,-3.1243,-3.1248,-3.1252,-3.1301,-3.1311,-3.132,0,0,0,0,0,-3.0878,-3.0936,-3.0926,-3.0937,-3.0992,-3.104,-3.1047,-3.1042,-3.1015,-3.1043,-3.105,-3.103,-3.1125,-3.1094,-3.1105,-3.1144,-3.124,-3.1246,-3.1252,-3.1296,-3.1309,-3.1319,0,0,0,0,0,0,-3.0919,-3.0939,-3.0927,-3.0994,-3.1016,-3.1034,-3.1069,-3.1055,-3.1085,-3.1079,-3.1071,-3.1076,-3.1137,-3.1146,-3.1111,-3.1217,-3.1178,-3.1187,-3.1208,-3.122,-3.123,-3.1225,-3.107,0,0,0,0,0,-3.0936,-3.0974,-3.0989,-3.1047,-3.1058,-3.1062,-3.1083,-3.1077,-3.1099,-3.1108,-3.1119,-3.1141,-3.1176,-3.1199,-3.1231,-3.1302,-3.1307,-3.1335,-3.1345,-3.1352,-3.1359,-3.1398,-3.141,-3.1275,-3.1274,-3.1274,0,0,-3.0972,-3.0987,-3.1011,-3.1056,-3.1072,-3.1111,-3.107,-3.1113,-3.1141,-3.1114,-3.1169,-3.1178,-3.1202,-3.1267,-3.1296,-3.1277,-3.1398,-3.136,-3.1366,-3.1369,-3.1405,-3.1418,-3.1429,-3.1279,-3.1278,-3.1277,0,0,-3.1056,-3.1072,-3.1121,-3.1139,-3.1164,-3.1166,-3.1179,-3.1199,-3.1204,-3.126,-3.124,-3.1274,-3.1335,-3.1352,-3.1369,-3.1462,-3.1445,-3.1473,-3.1522,-3.156,-3.157,-3.158,-3.1612,-3.1624,-3.148,-3.148,-3.148,0,-3.1096,-3.1154,-3.1149,-3.1193,-3.1213,-3.1191,-3.1242,-3.1259,-3.1293,-3.1307,-3.1286,-3.1362,-3.1376,-3.1445,-3.1467,-3.1482,-3.1495,-3.147,-3.157,-3.1579,-3.1588,-3.1619,-3.1631,-3.1484,-3.1483,-3.1483,-3.1483,0,-3.1203,-3.1244,-3.1281,-3.1315,-3.134,-3.1387,-3.1388,-3.1414,-3.1407,-3.1411,-3.1468,-3.1485,-3.1521,-3.1537,-3.153,-3.1605,-3.1592,-3.1571,-3.1531,-3.1604,-3.1633,-3.1645,-3.1488,-3.1487,-3.1486,-3.1485,0,0,-3.1313,-3.1345,-3.1358,-3.1374,-3.1401,-3.1432,-3.1479,-3.1514,-3.1536,-3.1561,-3.16,-3.1652,-3.1632,-3.1652,-3.1647,-3.168,-3.1752,-3.1654,-3.1654,-3.1671,-3.1835,-3.1851,-3.1865,-3.1741,-3.1743,-3.1745,-3.1833,0,-3.1398,-3.1479,-3.1476,-3.1552,-3.1589,-3.157,-3.161,-3.1631,-3.1637,-3.167,-3.1676,-3.1713,-3.1685,-3.1696,-3.1728,-3.1736,-3.1785,-3.173,-3.1776,-3.1778,-3.177,-3.188,-3.1896,-3.1978,-3.1844,-3.1846,-3.1848,0,-3.1507,-3.1537,-3.1617,-3.1638,-3.1654,-3.1691,-3.1723,-3.1755,-3.1778,-3.1781,-3.1803,-3.1793,-3.184,-3.1801,-3.1866,-3.1829,-3.1848,-3.1855,-3.1858,-3.1861,-3.1816,-3.1885,-3.2005,-3.2017,-3.1866,-3.1864,-3.1863,0,-3.1579,-3.1639,-3.1694,-3.1708,-3.1735,-3.1761,-3.1774,-3.1795,-3.1817,-3.1846,-3.186,-3.1894,-3.1912,-3.1939,-3.1938,-3.191,-3.2004,-3.1964,-3.2006,-3.2006,-3.2026,-3.2024,-3.2149,-3.204,-3.204,-3.2039,-3.2039,0,-3.1674,-3.1723,-3.1727,-3.176,-3.1815,-3.1812,-3.1866,-3.1876,-3.1895,-3.1931,-3.1916,-3.195,-3.1947,-3.1981,-3.1981,-3.2035,-3.2043,-3.2046,-3.2045,-3.2047,-3.2046,-3.2058,-3.2052,-3.2043,-3.2042,-3.2041,-3.2041,0,-3.1762,-3.1767,-3.1826,-3.1847,-3.1854,-3.1893,-3.1911,-3.1943,-3.1949,-3.1994,-3.2004,-3.2013,-3.2052,-3.2055,-3.21,-3.21,-3.2165,-3.2158,-3.2157,-3.2155,-3.2197,-3.2193,-3.2333,-3.2351,-3.2231,-3.2232,-3.2233,0,-3.1822,-3.1859,-3.1885,-3.1908,-3.1922,-3.1959,-3.1982,-3.198,-3.2004,-3.2034,-3.2063,-3.2101,-3.2132,-3.2196,-3.2205,-3.224,-3.2234,-3.2281,-3.2239,-3.2239,-3.2234,-3.2231,-3.2235,-3.2288,-3.229,-3.2291,-3.2291,0,-3.1927,-3.1928,-3.1961,-3.1995,-3.2023,-3.205,-3.2075,-3.2094,-3.2095,-3.2123,-3.2164,-3.2187,-3.2234,-3.2272,-3.2306,-3.2319,-3.2306,-3.2305,-3.2316,-3.2318,-3.2315,-3.2316,-3.2178,-3.2301,-3.23,-3.23,-3.2299,-3.2299,-3.2002,-3.2035,-3.2058,-3.2096,-3.2115,-3.2139,-3.217,-3.218,-3.2214,-3.2252,-3.2249,-3.2294,-3.2317,-3.2362,-3.2377,-3.2412,-3.2396,-3.2413,-3.2417,-3.2421,-3.2425,-3.2311,-3.2418,-3.2418,-3.2418,-3.2418,-3.2418,0,-3.2106,-3.2121,-3.2155,-3.2191,-3.2221,-3.2207,-3.2234,-3.226,-3.2299,-3.2322,-3.2353,-3.24,-3.2437,-3.245,-3.2486,-3.2512,-3.2507,-3.2521,-3.2519,-3.2522,-3.2437,-3.2424,-3.2525,-3.2525,-3.2525,-3.2525,-3.2525,-3.2525,-3.2164,-3.2218,-3.2222,-3.2285,-3.2299,-3.2343,-3.236,-3.2382,-3.2401,-3.2453,-3.2484,-3.2493,-3.2513,-3.255,-3.2584,-3.2587,-3.26,-3.2618,-3.2618,-3.2539,-3.2528,-3.2517,-3.2504,-3.2621,-3.2621,-3.2699,-3.27,-3.2701]},{"header":{"parameterUnit":"m.s-1","parameterCategory":1,"la1":30.2991,"la2":30.254,"lo1":-89.0895,"lo2":-89.0444,"dy":0.0017,"dx":0.0017,"nx":28,"ny":28,"refTime":"2025-04-23T21:00:00:Z","depth":0,"parameterNumber":3,"parameterNumberName":"V-component_of_WINDS"},"data":[0,0,0,0,0,0,0,0,0,0,0,0,0,0,0,0,0,0,0,0,0,0,0,0,0,0,0,0,0,0,0,0,0,0,0,0,0,0,0,0,0,0,0,0,0,0,0,0,0,0,0,0,0,0,0,0,0,0,2.5046,2.5046,0,2.5059,2.5059,2.5059,2.5035,2.5034,2.5033,2.5032,2.5044,2.5045,2.5046,0,0,0,0,0,0,0,0,0,0,0,0,0,2.4998,2.4999,2.5046,2.5046,2.5046,2.5059,2.5059,2.5059,2.5035,2.5034,2.5033,2.5032,2.5043,2.5045,2.5046,0,0,0,0,0,0,0,0,0,0,0,0,0,2.5016,2.5,2.5046,2.5035,2.5035,2.5059,2.5059,2.5059,2.5035,2.5034,2.5033,2.5032,2.5043,2.5044,2.5046,2.508,0,0,2.5051,2.5051,0,0,0,0,0,0,0,0,2.5015,2.5018,2.5037,2.5036,2.5035,2.5044,2.5046,2.5066,2.5035,2.5035,2.5032,2.5031,2.5045,2.5046,2.5051,2.508,2.5081,2.5051,2.5052,2.5053,2.5053,0,0,0,0,0,0,0,2.5014,2.5017,2.5051,2.5037,2.5036,2.503,2.5031,2.505,2.5046,2.5035,2.5033,2.5035,2.5044,2.5049,2.5051,2.5081,2.5051,2.5052,2.5053,2.5054,2.5139,2.514,0,0,0,0,0,0,2.5014,2.5016,2.505,2.5051,2.5022,2.5032,2.5033,2.5042,2.5046,2.5045,2.5036,2.5034,2.5047,2.5049,2.5051,2.5091,2.5052,2.5054,2.5055,2.5138,2.5139,2.5141,0,0,0,0,0,0,2.5013,2.5017,2.505,2.5033,2.5037,2.5034,2.5044,2.5043,2.5049,2.5047,2.5046,2.5043,2.5047,2.5049,2.5073,2.5091,2.5055,2.5056,2.5136,2.5138,2.514,2.5171,0,0,0,0,0,0,2.5012,2.5017,2.503,2.5034,2.5038,2.5072,2.5046,2.5044,2.5052,2.5049,2.5053,2.5052,2.5046,2.5071,2.5075,2.5093,2.5057,2.5134,2.5137,2.5139,2.5168,2.5174,2.5178,0,0,0,0,0,2.501,2.5038,2.5031,2.5035,2.5054,2.5073,2.5075,2.5068,2.5053,2.5066,2.5065,2.5052,2.5089,2.5073,2.5077,2.5096,2.5133,2.5136,2.5139,2.5166,2.5173,2.5178,0,0,0,0,0,0,2.5035,2.5038,2.503,2.506,2.5066,2.5069,2.5084,2.5075,2.5085,2.5082,2.5072,2.5073,2.5099,2.51,2.5083,2.5129,2.5108,2.5112,2.5128,2.5134,2.5139,2.5138,2.5059,0,0,0,0,0,2.5044,2.506,2.5061,2.5087,2.5091,2.5087,2.5095,2.5089,2.5095,2.5098,2.5098,2.5104,2.5117,2.5126,2.5137,2.5169,2.5169,2.5184,2.5189,2.5193,2.5196,2.5213,2.522,2.515,2.515,2.515,0,0,2.5062,2.5066,2.5076,2.5092,2.5096,2.5113,2.509,2.5107,2.5119,2.51,2.5123,2.5124,2.513,2.5158,2.517,2.5159,2.5216,2.5197,2.52,2.5201,2.5217,2.5223,2.5229,2.5152,2.5152,2.5152,0,0,2.5104,2.5109,2.5131,2.5137,2.5144,2.5142,2.5147,2.5151,2.5151,2.5175,2.5161,2.5174,2.5197,2.5202,2.5207,2.5253,2.5241,2.5257,2.5283,2.53,2.5305,2.531,2.5326,2.5332,2.526,2.526,2.526,0,2.5126,2.515,2.5144,2.5163,2.517,2.5155,2.5178,2.5183,2.5193,2.5199,2.5187,2.5215,2.5218,2.5247,2.5259,2.5264,2.5269,2.5256,2.5305,2.531,2.5314,2.5329,2.5335,2.5262,2.5262,2.5262,2.5262,0,2.5177,2.5194,2.5211,2.5223,2.5232,2.5253,2.5249,2.5259,2.5253,2.5252,2.5276,2.5279,2.5291,2.5298,2.5291,2.5326,2.532,2.5307,2.5285,2.5323,2.5337,2.5343,2.5265,2.5264,2.5264,2.5263,0,0,2.5233,2.5242,2.5249,2.5254,2.5262,2.5275,2.5295,2.5308,2.5317,2.5325,2.5342,2.5362,2.535,2.5357,2.5351,2.5365,2.5401,2.5351,2.5351,2.536,2.544,2.5449,2.5456,2.5394,2.5395,2.5396,2.544,0,2.5274,2.531,2.5305,2.5339,2.5355,2.5342,2.5359,2.5366,2.5366,2.5379,2.5378,2.5393,2.5377,2.538,2.5395,2.5394,2.5417,2.5391,2.5409,2.5409,2.5407,2.5464,2.5473,2.5514,2.5445,2.5446,2.5447,0,2.5327,2.5339,2.5375,2.5381,2.5388,2.5404,2.5416,2.5429,2.5436,2.5435,2.5443,2.5434,2.5454,2.5434,2.5461,2.5443,2.545,2.5451,2.5452,2.5453,2.543,2.5465,2.5527,2.5533,2.5455,2.5455,2.5454,0,2.5365,2.5389,2.5414,2.5419,2.5427,2.5439,2.5443,2.5449,2.5458,2.5468,2.5473,2.5486,2.5492,2.5502,2.5497,2.5483,2.5525,2.5504,2.5524,2.5525,2.5533,2.5533,2.5596,2.5539,2.5539,2.5539,2.5539,0,2.5411,2.5434,2.5431,2.5446,2.5471,2.5466,2.549,2.5492,2.5498,2.5513,2.5502,2.5517,2.551,2.5523,2.552,2.5543,2.5546,2.5545,2.5544,2.5546,2.5546,2.555,2.5547,2.554,2.554,2.554,2.5539,0,2.5457,2.5456,2.5482,2.5489,2.5491,2.5509,2.5514,2.5528,2.5527,2.5547,2.5551,2.555,2.5566,2.5562,2.5579,2.5577,2.5606,2.5601,2.5603,2.5602,2.5623,2.5621,2.569,2.5699,2.5637,2.5637,2.5638,0,2.5486,2.5503,2.5512,2.5522,2.5527,2.5543,2.5552,2.5548,2.5557,2.5568,2.5581,2.5596,2.5607,2.5633,2.5633,2.5646,2.5641,2.5665,2.5643,2.5645,2.5641,2.564,2.5642,2.5669,2.567,2.567,2.5671,0,2.5538,2.5538,2.5552,2.5566,2.5578,2.5589,2.5598,2.5607,2.5603,2.5614,2.5631,2.564,2.5658,2.5673,2.5685,2.5688,2.5679,2.5678,2.5683,2.5685,2.5686,2.5685,2.5615,2.5676,2.5675,2.5675,2.5675,2.5675,2.5577,2.5592,2.56,2.5617,2.5624,2.5633,2.5647,2.5649,2.5663,2.5678,2.5675,2.5694,2.5701,2.5717,2.5721,2.5735,2.5726,2.5734,2.5736,2.5738,2.574,2.5684,2.5738,2.5738,2.5737,2.5737,2.5737,0,2.5628,2.5634,2.5649,2.5664,2.5676,2.5668,2.5678,2.5689,2.5706,2.5715,2.5727,2.5746,2.5761,2.5763,2.5777,2.5788,2.5784,2.5791,2.579,2.5791,2.5748,2.5742,2.5794,2.5794,2.5794,2.5794,2.5794,2.5794,2.5656,2.5682,2.5682,2.5711,2.5716,2.5735,2.5742,2.575,2.5757,2.5779,2.5792,2.5794,2.58,2.5814,2.5827,2.5827,2.5832,2.5842,2.584,2.58,2.5794,2.5789,2.5783,2.5843,2.5843,2.5882,2.5883,2.5883]}]]